FDX50 SAEZ-SUMU

Flight info

Callsign FDX50
Flight time N/A
Altitude 17000
Route DORV1A DORVO A305 CRR
Aircraft 77L/H-V/N

Departure

Time 2026-05-05 19:40
Airport Ezeiza International Airport - Ministro Pistarini (SAEZ)

Arrival

Time N/A
Airport Carrasco General Cesáreo L. Berisso International Airport (SUMU)
Time Latitude Longitude Altitude Speed Heading
2026-05-05 19:20 -34.80958 -58.53721 84 ft 0 kts 252°
2026-05-05 19:29 -34.80954 -58.53707 85 ft 3 kts 252°
2026-05-05 19:29 -34.80949 -58.53685 82 ft 3 kts 252°
2026-05-05 19:29 -34.80943 -58.53663 86 ft 3 kts 242°
2026-05-05 19:30 -34.80930 -58.53645 86 ft 3 kts 198°
2026-05-05 19:30 -34.80914 -58.53643 86 ft 1 kts 169°
2026-05-05 19:32 -34.80916 -58.53642 85 ft 1 kts 169°
2026-05-05 19:32 -34.80932 -58.53639 86 ft 3 kts 169°
2026-05-05 19:32 -34.80962 -58.53632 86 ft 6 kts 169°
2026-05-05 19:33 -34.81007 -58.53621 83 ft 8 kts 169°
2026-05-05 19:33 -34.81065 -58.53607 85 ft 9 kts 169°
2026-05-05 19:33 -34.81137 -58.53590 83 ft 11 kts 169°
2026-05-05 19:33 -34.81220 -58.53570 86 ft 13 kts 169°
2026-05-05 19:34 -34.81315 -58.53547 86 ft 15 kts 168°
2026-05-05 19:34 -34.81418 -58.53522 83 ft 16 kts 168°
2026-05-05 19:34 -34.81528 -58.53495 84 ft 17 kts 168°
2026-05-05 19:35 -34.81587 -58.53480 85 ft 0 kts 168°
2026-05-05 19:37 -34.81613 -58.53527 83 ft 10 kts 269°
2026-05-05 19:37 -34.81604 -58.53622 82 ft 12 kts 276°
2026-05-05 19:37 -34.81615 -58.53734 84 ft 17 kts 242°
2026-05-05 19:37 -34.81715 -58.53883 85 ft 25 kts 240°
2026-05-05 19:38 -34.81799 -58.54074 84 ft 25 kts 259°
2026-05-05 19:38 -34.81773 -58.54287 83 ft 26 kts 279°
2026-05-05 19:38 -34.81750 -58.54508 84 ft 27 kts 267°
2026-05-05 19:38 -34.81780 -58.54732 84 ft 27 kts 271°
2026-05-05 19:39 -34.81744 -58.54961 81 ft 30 kts 282°
2026-05-05 19:39 -34.81700 -58.55208 83 ft 30 kts 279°
2026-05-05 19:39 -34.81833 -58.55351 85 ft 30 kts 169°
2026-05-05 19:39 -34.81933 -58.55161 85 ft 43 kts 102°
2026-05-05 19:40 -34.82058 -58.54419 91 ft 135 kts 101°
2026-05-05 19:40 -34.82283 -58.53101 577 ft 168 kts 102°
2026-05-05 19:40 -34.82620 -58.51716 1474 ft 178 kts 112°
2026-05-05 19:40 -34.83233 -58.50342 2352 ft 195 kts 124°
2026-05-05 19:41 -34.84078 -58.48905 2972 ft 222 kts 127°
2026-05-05 19:41 -34.85070 -58.47320 3532 ft 251 kts 124°
2026-05-05 19:41 -34.85634 -58.45194 4040 ft 278 kts 89°
2026-05-05 19:41 -34.85397 -58.42813 5039 ft 289 kts 77°
2026-05-05 19:42 -34.84950 -58.40380 6087 ft 299 kts 73°
2026-05-05 19:42 -34.84470 -58.37869 7120 ft 308 kts 74°
2026-05-05 19:42 -34.84009 -58.35331 8413 ft 307 kts 77°
2026-05-05 19:42 -34.83574 -58.32788 9677 ft 309 kts 79°
2026-05-05 19:43 -34.83153 -58.30186 10660 ft 319 kts 79°
2026-05-05 19:43 -34.82725 -58.27426 11142 ft 347 kts 79°
2026-05-05 19:43 -34.82269 -58.24400 11396 ft 380 kts 79°
2026-05-05 19:43 -34.81784 -58.21125 11906 ft 402 kts 79°
2026-05-05 19:44 -34.81294 -58.17775 12696 ft 413 kts 79°
2026-05-05 19:44 -34.80791 -58.14298 13666 ft 420 kts 79°
2026-05-05 19:44 -34.80284 -58.10780 14626 ft 425 kts 78°
2026-05-05 19:44 -34.79771 -58.07216 15505 ft 432 kts 78°
2026-05-05 19:45 -34.79238 -58.03531 16362 ft 440 kts 78°
2026-05-05 19:45 -34.78708 -57.99874 16984 ft 448 kts 78°
2026-05-05 19:45 -34.78148 -57.96071 16999 ft 463 kts 77°
2026-05-05 19:45 -34.77569 -57.92199 16991 ft 467 kts 77°
2026-05-05 19:46 -34.76993 -57.88316 16980 ft 465 kts 78°
2026-05-05 19:46 -34.76425 -57.84449 16983 ft 464 kts 78°
2026-05-05 19:46 -34.75861 -57.80587 17003 ft 464 kts 78°
2026-05-05 19:46 -34.75294 -57.76706 16999 ft 468 kts 78°
2026-05-05 19:47 -34.74724 -57.72807 16992 ft 468 kts 78°
2026-05-05 19:47 -34.74152 -57.68912 16986 ft 468 kts 78°
2026-05-05 19:47 -34.73580 -57.65021 16971 ft 467 kts 78°
2026-05-05 19:47 -34.73008 -57.61134 16973 ft 467 kts 78°
2026-05-05 19:48 -34.72442 -57.57248 16973 ft 467 kts 79°
2026-05-05 19:48 -34.72126 -57.53316 16976 ft 469 kts 87°
2026-05-05 19:48 -34.72207 -57.49353 16983 ft 470 kts 93°
2026-05-05 19:48 -34.72622 -57.45425 16979 ft 470 kts 101°
2026-05-05 19:49 -34.73327 -57.41541 16987 ft 471 kts 103°
2026-05-05 19:49 -34.73804 -57.38966 16987 ft 471 kts 102°
2026-05-05 19:49 -34.74754 -57.33766 16971 ft 469 kts 102°
2026-05-05 19:49 -34.75441 -57.29942 16887 ft 457 kts 102°
2026-05-05 19:50 -34.76105 -57.26199 16200 ft 458 kts 102°
2026-05-05 19:50 -34.76771 -57.22395 15568 ft 452 kts 102°
2026-05-05 19:50 -34.77408 -57.18738 14930 ft 445 kts 102°
2026-05-05 19:50 -34.78041 -57.15085 14330 ft 438 kts 102°
2026-05-05 19:51 -34.78663 -57.11488 13744 ft 430 kts 102°
2026-05-05 19:51 -34.79274 -57.07953 13099 ft 423 kts 103°
2026-05-05 19:51 -34.79875 -57.04472 12350 ft 419 kts 103°
2026-05-05 19:51 -34.80471 -57.01015 11661 ft 415 kts 103°
2026-05-05 19:52 -34.81058 -56.97607 11044 ft 410 kts 103°
2026-05-05 19:52 -34.81632 -56.94260 10749 ft 396 kts 103°
2026-05-05 19:52 -34.82183 -56.91048 10577 ft 379 kts 103°
2026-05-05 19:52 -34.82711 -56.87966 10406 ft 365 kts 103°
2026-05-05 19:53 -34.83218 -56.84997 10254 ft 351 kts 103°
2026-05-05 19:53 -34.83706 -56.82147 10102 ft 337 kts 102°
2026-05-05 19:53 -34.84175 -56.79403 9960 ft 325 kts 102°
2026-05-05 19:53 -34.84632 -56.76727 9643 ft 321 kts 102°
2026-05-05 19:54 -34.85080 -56.74090 9304 ft 316 kts 102°
2026-05-05 19:54 -34.85522 -56.71490 8986 ft 311 kts 102°
2026-05-05 19:54 -34.85956 -56.68930 8701 ft 306 kts 102°
2026-05-05 19:54 -34.86379 -56.66427 8453 ft 298 kts 102°
2026-05-05 19:55 -34.86786 -56.64020 8208 ft 291 kts 102°
2026-05-05 19:55 -34.87192 -56.61616 7885 ft 288 kts 102°
2026-05-05 19:55 -34.87595 -56.59231 7506 ft 288 kts 102°
2026-05-05 19:55 -34.87996 -56.56845 7112 ft 288 kts 102°
2026-05-05 19:56 -34.88397 -56.54459 6731 ft 287 kts 102°
2026-05-05 19:56 -34.88797 -56.52078 6378 ft 287 kts 102°
2026-05-05 19:56 -34.89193 -56.49711 6072 ft 283 kts 102°
2026-05-05 19:56 -34.89582 -56.47387 5797 ft 277 kts 102°
2026-05-05 19:57 -34.89964 -56.45103 5505 ft 273 kts 102°
2026-05-05 19:57 -34.90212 -56.43618 5451 ft 266 kts 102°
2026-05-05 19:57 -34.90709 -56.40643 5187 ft 273 kts 102°
2026-05-05 19:57 -34.91087 -56.38369 4885 ft 273 kts 102°
2026-05-05 19:58 -34.91461 -56.36114 4580 ft 270 kts 101°
2026-05-05 19:58 -34.91832 -56.33880 4291 ft 267 kts 101°
2026-05-05 19:58 -34.92196 -56.31682 3989 ft 263 kts 101°
2026-05-05 19:58 -34.92554 -56.29527 3712 ft 257 kts 100°
2026-05-05 19:59 -34.92902 -56.27432 3501 ft 243 kts 100°
2026-05-05 19:59 -34.93222 -56.25506 3378 ft 222 kts 100°
2026-05-05 19:59 -34.93510 -56.23774 3304 ft 200 kts 101°
2026-05-05 19:59 -34.93773 -56.22199 3258 ft 179 kts 101°
2026-05-05 20:00 -34.94006 -56.20779 3159 ft 164 kts 97°
2026-05-05 20:00 -34.93833 -56.19488 3031 ft 154 kts 52°
2026-05-05 20:00 -34.93143 -56.18498 2939 ft 157 kts 49°
2026-05-05 20:00 -34.92500 -56.17411 2772 ft 156 kts 51°
2026-05-05 20:01 -34.91876 -56.16350 2570 ft 151 kts 51°
2026-05-05 20:01 -34.91266 -56.15323 2388 ft 149 kts 52°
2026-05-05 20:01 -34.90658 -56.14308 2181 ft 148 kts 52°
2026-05-05 20:01 -34.90050 -56.13299 2000 ft 148 kts 52°
2026-05-05 20:02 -34.89443 -56.12294 1807 ft 146 kts 52°
2026-05-05 20:02 -34.88845 -56.11304 1617 ft 145 kts 52°
2026-05-05 20:02 -34.88246 -56.10315 1426 ft 146 kts 52°
2026-05-05 20:02 -34.87639 -56.09315 1227 ft 146 kts 52°
2026-05-05 20:03 -34.87041 -56.08330 1043 ft 143 kts 52°
2026-05-05 20:03 -34.86451 -56.07347 834 ft 142 kts 54°
2026-05-05 20:03 -34.85862 -56.06369 657 ft 145 kts 52°
2026-05-05 20:03 -34.85248 -56.05397 408 ft 144 kts 54°
2026-05-05 20:04 -34.84660 -56.04422 216 ft 144 kts 54°
2026-05-05 20:04 -34.84064 -56.03451 86 ft 139 kts 54°
2026-05-05 20:04 -34.83549 -56.02604 91 ft 104 kts 53°
2026-05-05 20:04 -34.83474 -56.02480 90 ft 95 kts 53°